Total_Precipitation_Accumulation
0.01 0.02 0.04 0.06 0.08 0.07 0.04 0.02 0.04 0.05 0.09 0.04 0.02 0.02 0.01 0.01 0.01 0.01 0.01 0.01 0.02 0.02 0.02 0.02 0.02 0.02 0.03 0.03 0.04 0.04 0.05 0.06 0.06 0.06 0.06 0.06 0.05 0.05 0.06 0.09 0.11 0.15 0.18 0.18
0.01 0.02 0.04 0.06 0.09 0.06 0.03 0.03 0.03 0.03 0.03 0.02 0.02 0.02 0.02 0.03 0.04 0.05 0.06 0.06 0.05 0.04 0.04 0.03 0.03 0.03 0.03 0.03 0.03 0.04 0.06 0.06 0.06 0.06 0.06 0.07 0.06 0.06 0.07 0.10 0.15 0.20 0.22 0.22
0.01 0.02 0.03 0.11 0.07 0.04 0.04 0.04 0.04 0.04 0.04 0.03 0.04 0.05 0.05 0.07 0.07 0.06 0.05 0.03 0.03 0.03 0.03 0.03 0.02 0.02 0.01 0.02 0.02 0.03 0.04 0.04 0.05 0.06 0.06 0.08 0.08 0.08 0.10 0.14 0.19 0.25 0.27 0.28
0.01 0.01 0.06 0.09 0.05 0.04 0.04 0.04 0.06 0.07 0.06 0.06 0.06 0.06 0.05 0.05 0.04 0.03 0.03 0.03 0.03 0.03 0.03 0.02 0.02 0.02 0.02 0.02 0.02 0.03 0.04 0.04 0.06 0.07 0.09 0.11 0.14 0.16 0.19 0.23 0.25 0.28 0.29 0.32
0.03 0.02 0.04 0.05 0.05 0.06 0.09 0.08 0.06 0.09 0.10 0.08 0.07 0.05 0.04 0.05 0.05 0.05 0.05 0.04 0.03 0.03 0.03 0.03 0.02 0.02 0.02 0.03 0.04 0.04 0.05 0.07 0.09 0.12 0.14 0.16 0.18 0.23 0.31 0.33 0.32 0.36 0.39 0.41
0.04 0.04 0.06 0.07 0.09 0.08 0.09 0.12 0.10 0.13 0.13 0.10 0.09 0.12 0.13 0.11 0.09 0.07 0.05 0.04 0.03 0.03 0.03 0.03 0.04 0.04 0.04 0.05 0.07 0.09 0.11 0.13 0.15 0.18 0.22 0.24 0.27 0.32 0.36 0.41 0.41 0.44 0.47 0.52
0.07 0.06 0.06 0.09 0.11 0.12 0.20 0.23 0.24 0.26 0.21 0.14 0.11 0.12 0.12 0.09 0.08 0.06 0.05 0.04 0.03 0.02 0.02 0.03 0.04 0.05 0.08 0.11 0.15 0.17 0.19 0.19 0.20 0.23 0.28 0.30 0.36 0.41 0.43 0.45 0.47 0.51 0.54 0.60
0.16 0.19 0.18 0.16 0.18 0.23 0.28 0.25 0.25 0.20 0.14 0.10 0.08 0.07 0.05 0.04 0.03 0.03 0.03 0.02 0.02 0.02 0.02 0.03 0.05 0.09 0.14 0.17 0.19 0.20 0.21 0.22 0.22 0.25 0.26 0.29 0.38 0.43 0.47 0.53 0.55 0.56 0.64 0.70
0.15 0.19 0.19 0.19 0.17 0.15 0.12 0.09 0.07 0.05 0.04 0.04 0.04 0.04 0.03 0.02 0.02 0.02 0.01 0.02 0.02 0.02 0.03 0.05 0.08 0.14 0.19 0.18 0.19 0.22 0.23 0.24 0.25 0.26 0.30 0.35 0.40 0.40 0.41 0.44 0.45 0.50 0.67 0.81
0.10 0.15 0.18 0.17 0.12 0.09 0.07 0.05 0.04 0.03 0.04 0.05 0.04 0.03 0.02 0.02 0.01 0.01 0.01 0.02 0.02 0.03 0.06 0.08 0.10 0.13 0.16 0.18 0.22 0.27 0.28 0.28 0.29 0.30 0.32 0.34 0.42 0.42 0.41 0.41 0.40 0.47 0.67 0.81
0.14 0.19 0.22 0.19 0.14 0.11 0.07 0.05 0.04 0.05 0.05 0.05 0.04 0.03 0.02 0.01 0.01 0.01 0.01 0.02 0.04 0.08 0.12 0.13 0.13 0.13 0.15 0.18 0.26 0.31 0.31 0.30 0.31 0.33 0.33 0.33 0.39 0.42 0.36 0.37 0.34 0.36 0.54 0.77
0.12 0.17 0.20 0.19 0.13 0.08 0.06 0.05 0.06 0.06 0.06 0.05 0.04 0.02 0.01 0.01 0.01 0.01 0.02 0.05 0.09 0.13 0.16 0.16 0.15 0.16 0.17 0.21 0.31 0.37 0.37 0.34 0.33 0.33 0.33 0.34 0.37 0.37 0.30 0.23 0.21 0.19 0.25 0.40
0.08 0.13 0.15 0.14 0.09 0.07 0.06 0.08 0.09 0.08 0.06 0.04 0.02 0.01 0.01 0.00 0.00 0.02 0.05 0.11 0.18 0.23 0.24 0.23 0.22 0.21 0.20 0.26 0.36 0.40 0.40 0.35 0.33 0.30 0.30 0.29 0.32 0.38 0.41 0.37 0.23 0.17 0.15 0.19
0.11 0.11 0.10 0.09 0.09 0.08 0.09 0.09 0.09 0.07 0.05 0.03 0.02 0.01 0.01 0.00 0.02 0.06 0.13 0.22 0.31 0.34 0.31 0.29 0.27 0.23 0.23 0.29 0.35 0.34 0.33 0.32 0.31 0.28 0.28 0.29 0.32 0.36 0.39 0.46 0.47 0.38 0.24 0.17
0.11 0.10 0.11 0.09 0.08 0.07 0.07 0.07 0.07 0.05 0.03 0.02 0.01 0.01 0.01 0.02 0.06 0.13 0.22 0.36 0.43 0.39 0.33 0.31 0.28 0.24 0.24 0.30 0.33 0.32 0.32 0.28 0.24 0.24 0.25 0.28 0.32 0.34 0.36 0.42 0.53 0.60 0.55 0.32
0.12 0.10 0.09 0.08 0.07 0.06 0.05 0.05 0.05 0.04 0.03 0.03 0.03 0.03 0.03 0.04 0.09 0.17 0.27 0.41 0.53 0.50 0.41 0.35 0.29 0.24 0.24 0.30 0.31 0.29 0.27 0.22 0.18 0.18 0.20 0.26 0.29 0.30 0.35 0.46 0.57 0.69 0.71 0.48
0.12 0.10 0.09 0.08 0.07 0.06 0.05 0.04 0.03 0.03 0.03 0.03 0.02 0.03 0.03 0.05 0.13 0.25 0.34 0.40 0.44 0.43 0.42 0.38 0.29 0.22 0.23 0.28 0.28 0.27 0.24 0.20 0.16 0.15 0.19 0.24 0.27 0.31 0.36 0.48 0.61 0.70 0.66 0.44
0.08 0.07 0.06 0.05 0.05 0.06 0.05 0.05 0.05 0.05 0.04 0.04 0.03 0.03 0.03 0.08 0.24 0.40 0.47 0.51 0.46 0.38 0.37 0.36 0.27 0.21 0.21 0.24 0.25 0.25 0.20 0.18 0.17 0.18 0.21 0.24 0.26 0.33 0.41 0.54 0.65 0.71 0.60 0.41
0.06 0.05 0.04 0.03 0.03 0.03 0.03 0.03 0.04 0.04 0.04 0.03 0.03 0.02 0.02 0.08 0.26 0.41 0.46 0.57 0.63 0.57 0.46 0.37 0.26 0.20 0.20 0.19 0.19 0.22 0.20 0.18 0.18 0.19 0.22 0.20 0.25 0.34 0.40 0.49 0.61 0.68 0.59 0.52
0.03 0.03 0.02 0.02 0.01 0.01 0.01 0.01 0.01 0.01 0.01 0.01 0.01 0.01 0.02 0.07 0.22 0.36 0.43 0.51 0.62 0.62 0.56 0.45 0.26 0.18 0.17 0.18 0.20 0.19 0.19 0.18 0.17 0.18 0.19 0.22 0.26 0.32 0.35 0.41 0.52 0.60 0.58 0.62
0.03 0.03 0.03 0.02 0.02 0.01 0.01 0.01 0.01 0.01 0.01 0.01 0.01 0.01 0.01 0.06 0.14 0.28 0.51 0.62 0.54 0.49 0.49 0.50 0.29 0.15 0.13 0.15 0.20 0.21 0.20 0.20 0.19 0.20 0.21 0.23 0.27 0.33 0.39 0.46 0.52 0.56 0.61 0.65
0.04 0.04 0.02 0.01 0.01 0.00 0.00 0.00 0.00 0.00 0.00 0.01 0.01 0.01 0.02 0.05 0.11 0.20 0.35 0.53 0.54 0.51 0.39 0.38 0.31 0.15 0.11 0.10 0.12 0.16 0.20 0.25 0.27 0.29 0.30 0.31 0.34 0.39 0.45 0.47 0.50 0.53 0.59 0.66
0.03 0.02 0.00 0.00 0.00 0.00 0.00 0.00 0.00 0.00 0.01 0.01 0.01 0.02 0.03 0.05 0.12 0.27 0.36 0.35 0.40 0.43 0.30 0.26 0.27 0.20 0.13 0.11 0.12 0.15 0.18 0.23 0.28 0.30 0.29 0.31 0.35 0.39 0.44 0.47 0.49 0.52 0.62 0.67
0.01 0.00 0.00 0.00 0.00 0.00 0.00 0.00 0.00 0.00 0.01 0.01 0.01 0.02 0.04 0.07 0.10 0.17 0.28 0.33 0.37 0.42 0.32 0.30 0.26 0.21 0.18 0.17 0.20 0.21 0.21 0.23 0.25 0.25 0.26 0.30 0.35 0.40 0.49 0.55 0.58 0.57 0.59 0.58
0.01 0.01 0.01 0.01 0.01 0.01 0.01 0.01 0.01 0.01 0.01 0.02 0.02 0.03 0.04 0.07 0.14 0.20 0.25 0.30 0.35 0.37 0.34 0.35 0.32 0.30 0.27 0.29 0.32 0.33 0.30 0.30 0.30 0.30 0.32 0.35 0.42 0.50 0.55 0.59 0.58 0.54 0.51 0.50
0.01 0.01 0.01 0.01 0.01 0.02 0.02 0.02 0.02 0.03 0.04 0.06 0.06 0.07 0.07 0.10 0.17 0.26 0.34 0.36 0.37 0.38 0.33 0.30 0.29 0.30 0.29 0.35 0.40 0.43 0.41 0.39 0.38 0.38 0.41 0.46 0.52 0.57 0.55 0.49 0.47 0.46 0.43 0.40
0.02 0.02 0.02 0.02 0.03 0.03 0.03 0.04 0.06 0.08 0.09 0.10 0.10 0.10 0.14 0.20 0.27 0.32 0.34 0.36 0.38 0.37 0.33 0.30 0.27 0.25 0.26 0.30 0.34 0.39 0.41 0.43 0.42 0.42 0.45 0.47 0.48 0.46 0.42 0.38 0.39 0.37 0.34 0.35